This is the latest recevied weather packets stored in our database for station/object KC8YYF. If no packets are shown the sender has not sent any weather packets the latest 10 day(s).
| Time | Temp. | Humidity | Pressure | Rain* | Wind** | Luminosity | Snow |
|---|---|---|---|---|---|---|---|
| 1777359695 | 13.89° C | 94% | 1013.6 hPa | 1.78 mm | - | 0 W/m² | - |
| 1777359392 | 13.89° C | 93% | 1013.6 hPa | 1.27 mm | - | 0 W/m² | - |
| 1777359089 | 13.89° C | 91% | 1013.6 hPa | 1.78 mm | - | 0 W/m² | - |
| 1777358787 | 14.44° C | 90% | 1013.5 hPa | 1.78 mm | - | 0 W/m² | - |
| 1777358484 | 14.44° C | 88% | 1013.6 hPa | 1.27 mm | - | 0 W/m² | - |
| 1777358182 | 14.44° C | 87% | 1013.2 hPa | 0.51 mm | - | 0 W/m² | - |
| 1777357880 | 14.44° C | 87% | 1013.1 hPa | 0 mm | - | 0 W/m² | - |
| 1777357577 | 14.44° C | 86% | 1013 hPa | 0.51 mm | - | 0 W/m² | - |
| 1777357273 | 15° C | 84% | 1012.5 hPa | 0.51 mm | - | 0 W/m² | - |
| 1777356970 | 15° C | 85% | 1012.5 hPa | 0.51 mm | - | 0 W/m² | - |
| 1777356668 | 15° C | 85% | 1012.4 hPa | 1.27 mm | - | 0 W/m² | - |
| 1777356365 | 15.56° C | 83% | 1012.3 hPa | 0.51 mm | - | 0 W/m² | - |
| 1777356061 | 15.56° C | 80% | 1012.5 hPa | 0 mm | - | 0 W/m² | - |
| 1777355758 | 15.56° C | 81% | 1012.8 hPa | 0.51 mm | - | 0 W/m² | - |
| 1777355455 | 16.11° C | 79% | 1012.8 hPa | 0.51 mm | - | 0 W/m² | - |
| 1777355151 | 16.67° C | 76% | 1012.7 hPa | 0 mm | - | 0 W/m² | - |
| 1777354848 | 17.22° C | 72% | 1013.1 hPa | 0 mm | - | 0 W/m² | - |
| 1777354544 | 17.78° C | 67% | 1012.9 hPa | 0 mm | - | 0 W/m² | - |
| 1777354240 | 17.78° C | 67% | 1013 hPa | 0 mm | - | 0 W/m² | - |
| 1777353937 | 18.33° C | 65% | 1012.9 hPa | 0 mm | - | 0 W/m² | - |
| 1777353633 | 18.33° C | 63% | 1013 hPa | 0 mm | - | 0 W/m² | - |
| 1777353332 | 18.33° C | 62% | 1012.6 hPa | 0 mm | - | 0 W/m² | - |
| 1777353029 | 18.89° C | 61% | 1013 hPa | 0 mm | - | 0 W/m² | - |
| 1777352728 | 18.89° C | 59% | 1012.8 hPa | 0 mm | - | 0 W/m² | - |
| 1777352426 | 18.89° C | 58% | 1012.8 hPa | 0 mm | - | 0 W/m² | - |
* Rain latest hour (hover to see other rain measurements)
** Current wind speed in m/s (hover to see current wind gust speed)